Location: Newport
(44.6370°N, 124.0520°W)
Time: 20:30:39
(UTC-07:00)

Vanguard 1 Rocket - Visible Passes

Search period start: 19 October 2017 00:00
Search period end: 29 October 2017 00:00
Orbit: 655 x 4222 km, 34.3° (Epoch: 19 October)

Date Brightness Start Highest point End Pass type
(mag) Time Alt. Az. Time Alt. Az. Time Alt. Az.
20 Oct 10.5 06:13:23 10° S 06:16:54 12° SSE 06:19:49 10° SE visible
22 Oct 10.2 06:13:34 10° SSW 06:20:08 18° SSE 06:24:49 10° ESE visible
23 Oct 10.6 05:02:51 10° S 05:08:40 14° SSE 05:13:09 10° SE visible
24 Oct 11.0 03:55:56 10° SSE 03:56:52 10° SSE 03:57:45 10° SSE visible
24 Oct 9.9 06:14:45 10° SSW 06:23:21 24° SSE 06:28:54 10° ESE visible
25 Oct 10.4 05:02:49 10° SSW 05:11:52 20° SSE 05:17:59 10° ESE visible
26 Oct 10.8 03:54:20 13° S 04:00:00 16° SSE 04:06:01 10° ESE visible
26 Oct 9.7 06:16:24 10° SW 06:26:33 30° SSE 06:32:39 10° ESE visible
27 Oct 11.2 02:47:54 11° SSE 02:47:54 11° SSE 02:50:50 10° SE visible
27 Oct 10.1 05:05:15 13° SSW 05:15:02 27° SSE 05:22:04 10° ESE visible
28 Oct 10.5 03:58:42 19° S 04:03:07 22° SSE 04:10:50 10° ESE visible
28 Oct 9.5 06:18:19 10° SW 06:29:42 36° S 06:36:13 10° ESE visible
